Location: Bamobli
(6.6379°N, 10.9396°W)
Time: 21:10:21
(UTC+00:00)

Cosmos 1441 Rocket - Pass Details

Date: 07 June 2020
Orbit: 497 x 540 km, 81.1° (Epoch: 05 July)

Event Time Altitude Azimuth Distance (km) Brightness Sun altitude
Rises 05:27:13 0° 176° (S) 2,583 6.5 -14.6°
Reaches altitude 10° 05:29:22 10° 170° (S) 1,704 5.7 -14.1°
Maximum altitude 05:32:59 49° 95° (E) 659 4.1 -13.3°
Drops below altitude 10° 05:36:38 10° 19° (NNE) 1,720 6.5 -12.4°
Sets 05:38:48 0° 14° (NNE) 2,611 7.4 -12.0°
